#timestamp,LO_Frequency,Hit,StdDev 
1559412015.6,286046996.7,N
1559412035.5,286046998.2,N
1559412055.3,286046998.6,N
1559412075.2,286046999.2,N
1559412095.9,286046997.1,N
1559412115.7,286046997.3,N
1559412135.6,286046997.3,N
1559412155.4,286046997.4,N
1559412175.2,286046997.7,N
1559412195.1,286046997.5,N
1559412196.0,286046997.5,N
1559412215.8,286046996.8,N
1559412235.7,286046996.8,N
1559412255.5,286046999.2,N
1559412275.3,286046998.4,N
1559412295.2,286046999.3,N
1559412315.9,286046999.0,N
1559412335.7,286046998.9,N
1559412355.6,286046999.2,N
1559412375.4,286046999.1,N
1559412395.3,286046996.7,N
1559412415.1,286046997.0,N
1559412416.0,286046997.0,N
1559412435.8,286046996.9,N
1559412455.7,286046997.9,N
1559412475.5,286046998.9,N
1559412495.3,286046999.0,N
1559412515.2,286046999.2,N
1559412535.0,286046998.7,N
1559412535.9,286046998.7,N
1559412555.8,286046998.1,N
1559412575.6,286047001.6,N
1559412595.4,286047001.9,N
1559412615.3,286047001.3,N
1559412635.1,286047003.1,N
1559412655.8,286047001.4,N
1559412675.7,286047002.6,N
1559412695.5,286047000.8,N
1559412715.4,286047001.1,N
1559412735.2,286047000.1,N
1559412755.0,286046999.8,N
1559412755.9,286046999.8,N
1559412775.8,286047000.5,N
1559412795.6,286047000.2,N
1559412815.4,286047002.1,N
1559412835.3,286046999.8,N
1559412855.1,286047001.0,N
1559412875.9,286046999.8,N
1559412895.7,286046999.8,N
1559412915.5,286047002.2,N
1559412935.4,286047004.2,N
1559412955.2,286047004.3,N
1559412975.0,286047002.1,N
1559412975.9,286047002.1,N
1559412995.8,286047002.7,N
1559413015.6,286046999.8,N
1559413035.5,286047000.0,N
1559413055.3,286047000.8,N
1559413075.1,286046998.1,N
1559413095.9,286046998.3,N
1559413115.7,286047001.2,N
1559413135.5,286046997.2,N
1559413155.4,286046996.5,N
1559413175.2,286046999.2,N
1559413195.1,286046998.5,N
1559413196.0,286046998.5,N
1559413215.8,286046999.3,N
1559413235.6,286046996.9,N
1559413255.5,286046997.2,N
1559413275.3,286046999.0,N
1559413295.1,286046996.5,N
1559413315.9,286047000.9,N
1559413335.7,286047000.7,N
1559413355.6,286047001.0,N
1559413375.4,286046998.6,N
1559413395.2,286046998.1,N
1559413415.1,286047000.7,N
1559413416.0,286047000.7,N
1559413435.8,286047000.7,N
1559413455.6,286047000.9,N
1559413475.5,286046999.8,N
1559413495.3,286047002.8,N
1559413515.2,286047001.6,N
1559413535.9,286047003.9,N
1559413555.7,286047004.4,N
1559413575.6,286047002.5,N
1559413595.4,286047001.9,N
1559413615.2,286047001.0,N
1559413635.1,286047000.9,N
1559413636.0,286047000.9,N
1559413655.8,286047001.0,N
1559413675.7,286047000.4,N
1559413695.5,286047002.1,N
1559413715.3,286047000.2,N
1559413735.2,286047000.1,N
1559413755.0,286047000.6,N
1559413755.9,286047000.6,N
1559413805.8,286047004.3,E
1559413815.7,286047000.3,N
1559413835.5,286046996.9,P
1559413855.4,286046999.4,N
1559413875.2,286046996.9,N
1559413895.0,286046997.4,N
1559413895.9,286046997.4,N
1559413915.8,286046997.6,N
1559413935.6,286046995.2,Y
1559413955.5,286046996.7,P
1559413975.3,286046999.2,N
1559413995.1,286046999.5,N
1559414015.9,286046998.4,N
1559414035.7,286046999.4,N
1559414055.5,286046998.4,N
1559414075.4,286046998.8,N
1559414095.2,286046999.6,N
1559414115.1,286046997.4,Y
1559414116.0,286046997.4,P
1559414135.8,286046999.2,N
1559414155.6,286047000.2,N
1559414175.5,286046998.1,N
1559414195.3,286046999.4,N
1559414215.1,286046999.5,N
1559414235.9,286046998.4,N
1559414255.7,286047000.9,N
1559414275.6,286046998.1,N
1559414295.4,286046999.7,N
1559414315.2,286047000.2,N
1559414335.1,286047000.3,N
1559414336.0,286047000.3,N
1559414355.8,286047000.7,N
1559414375.6,286046998.8,N
1559414395.5,286046998.8,N
1559414415.3,286046998.8,N
1559414435.2,286047000.9,N
1559414455.9,286047002.0,N
1559414475.7,286047003.5,Y
1559414495.6,286047004.8,P
1559414515.4,286047003.1,N
1559414535.2,286047005.7,N
1559414555.1,286047003.8,N
1559414556.0,286047003.8,N
1559414575.8,286047002.3,N
1559414595.7,286047000.4,N
1559414615.5,286046998.3,N
1559414635.3,286046999.8,N
1559414655.2,286047000.5,N
1559414675.9,286046998.3,N
1559414695.7,286046996.5,N
1559414715.6,286046996.8,N
1559414735.4,286046997.6,N
1559414755.3,286046995.2,N
1559414775.1,286046996.5,N
1559414776.0,286046996.5,N
1559414795.8,286046999.6,N
1559414815.7,286046996.8,N
1559414835.5,286046996.5,N
1559414855.3,286046997.9,N
1559414875.2,286046995.1,N
1559414895.0,286046995.2,N
1559414895.9,286046995.2,N
1559414915.8,286046996.2,N
1559414935.6,286046996.1,N
1559414955.4,286046995.1,N
1559414975.3,286046997.6,N
1559414995.1,286046995.0,N
1559415015.8,286046995.0,N
1559415035.7,286046997.8,N
1559415055.5,286046997.4,N
1559415075.4,286046994.9,N
1559415095.2,286046997.1,N
1559415115.0,286046997.6,N
1559415115.9,286046997.6,N
1559415135.8,286046997.6,N
1559415155.6,286046996.7,N
1559415175.4,286046999.5,N
1559415195.3,286046997.1,N
1559415215.1,286046999.5,N
1559415235.9,286046998.4,N
1559415255.7,286046999.1,N
1559415275.5,286046999.1,N
1559415295.4,286046997.1,N
1559415315.2,286046996.9,N
1559415335.0,286046998.1,N
1559415335.9,286046998.1,N
1559415355.8,286047001.1,N
1559415375.6,286047002.8,N
1559415395.5,286047002.5,N
1559415415.3,286047002.4,N
1559415435.1,286046999.8,N
1559415455.9,286047000.1,N
1559415475.7,286047002.7,N
1559415495.5,286047002.0,N
1559415515.4,286047001.9,N
1559415535.2,286047004.3,N
1559415555.1,286047004.0,N
1559415556.0,286047004.0,N
1559415575.8,286047003.8,N
1559415595.6,286047003.9,N
